Regional Weather Roundup
Issued by NWS

Home | Current Version | Previous Version | Text Only | Print | Product List | Glossary On
Versions: 1 2 3 4 5 6 7 8 9 10 11 12 13 14 15 16 17 18 19 20 21 22 23 24 25 26 27 28 29 30 31 32 33 34 35 36 37 38 39 40 41 42 43 44 45 46 47 48 49 50
009
ASUS43 KDTX 240201
RWRMI
MICHIGAN HOURLY REGIONAL WEATHER ROUNDUP
NATIONAL WEATHER SERVICE DETROIT/PONTIAC MI
900 PM EST MON JAN 23 2017

NOTE: "FAIR" INDICATES FEW OR NO CLOUDS BELOW 12,000 FEET WITH NO
SIGNIFICANT WEATHER AND/OR OBSTRUCTION TO VISIBILITY.

MIZ047>049-052>055-059>063-066>070-074>076-081>083-240300-
SOUTHEAST LOWER MICHIGAN

CITY           SKY/WX    TMP DP  RH WIND       PRES   REMARKS
ADRIAN         LGT RAIN  41  41 100 NE7       29.71R FOG
ALMA           LGT RAIN  37  37  99 CALM      29.74R
ANN ARBOR      LGT RAIN  41  41 100 N5        29.71R FOG
BAD AXE        CLOUDY    37  37 100 E5        29.75R FOG     WCI  33
CARO           RAIN      38  38 100 CALM      29.73R
DETROIT CITY   CLOUDY    40  40 100 NE7       29.71S FOG
DETROIT        CLOUDY    42  41  96 NE7       29.72R FOG
FLINT          FOG       38  38 100 NE8       29.73R VSB 1/2 WCI  32
GROSSE ILE     FOG       41  40  98 N6        29.70S VSB 3/4
HILLSDALE      RAIN      37  37 100 CALM      29.69S
HOWELL         DRZL/FOG  39  38  97 NE3       29.71S VSB 1

CITY           SKY/WX    TMP DP  RH WIND       PRES   REMARKS
JACKSON        LGT RAIN  40  38  93 NE5       29.71R
LAMBERTVILLE   RAIN      44  42  94 CALM      29.70S
LANSING        LGT RAIN  38  36  92 NE5       29.73R FOG     WCI  34
LAPEER         CLOUDY    38  38 100 CALM      29.73S FOG
MASON          LGT RAIN  38  38 100 CALM      29.71S
MONROE         DRIZZLE   42  42 100 NE6       29.70S
MT. CLEMENS    CLOUDY    40  40 100 NE7       29.69F FOG     WCI  35
PONTIAC        FOG       38  36  92 NE5       29.70R VSB 1/4 WCI  34
PORT HOPE        N/A     37  36  96 SE9       29.74R WCI  30
PORT HURON     CLOUDY    37  37 100 E5        29.72S FOG     WCI  34
TRI CITIES     LGT RAIN  36  36 100 NE7       29.74S FOG     WCI  30
MIDLAND        DRIZZLE   37  37  97 NE3       29.74R
TROY           FOG       40  38  94 N3        29.73S VSB 1
SAGINAW HB     DRZL/FOG  36  34  93 N3        29.73S VSB 1
$$
MIZ043>046-050>051-056>058-064>065-071>073-077>080-240300-
SOUTHWEST LOWER MICHIGAN

CITY           SKY/WX    TMP DP  RH WIND       PRES   REMARKS
BATTLE CREEK   LGT RAIN  40  40 100 NW6       29.73R
BENTON HARBOR  CLOUDY    38  37  97 N5        29.77S FOG     WCI  34
BIG RAPIDS     LGT SNOW  38  37  98 CALM      29.74S
COLDWATER      LGT RAIN  40  40 100 NW6       29.72R
FREMONT        CLOUDY    39  38  97 NW5       29.75S
HOLLAND        CLOUDY    39  37  92 NW5       29.76R
GRAND RAPIDS   LGT RAIN  40  38  93 NW6       29.74R
IONIA          LGT RAIN  38  38 100 NW3       29.73R
KALAMAZOO      LGT RAIN  41  38  89 NW8       29.74R FOG
LUDINGTON      CLOUDY    38  38 100 N5        29.77S FOG     WCI  34
MARSHALL       LGT RAIN  39  38  97 CALM      29.71S
MOUNT PLEASANT LGT RAIN  37  37  99 CALM      29.74R
MUSKEGON       CLOUDY    40  38  93 N7        29.77S
SOUTH HAVEN    CLOUDY    38  38  99 N8        29.76F FOG     WCI  32
$$
MIZ016>042-240300-
NORTHERN LOWER MICHIGAN

CITY           SKY/WX    TMP DP  RH WIND       PRES   REMARKS
ALPENA         LGT RAIN  37  35  92 E8        29.77S FOG     WCI  31
BEAVER ISLAND  CLOUDY    33  33 100 NE6       29.77F FOG     WCI  27
BELLAIRE       LGT SNOW  34  34 100 CALM      29.76R VSB 3/4
CADILLAC       LGT RAIN  37  36  96 CALM      29.73R
CHARLEVOIX     LGT RAIN  35  35 100 CALM      29.79R VSB 1
FRANKFORT      CLOUDY   N/A N/A N/A CALM      29.77R FOG
GAYLORD        LGT RAIN  36  33  89 CALM      29.73R
GRAYLING       RAIN      35  35 100 CALM      29.75R
HARBOR SPRINGS LGT RAIN  35  35  99 NE5       29.76R WCI  31
HOUGHTON LAKE  LGT RAIN  36  35  96 E3        29.74R
MANISTEE       CLOUDY    37  37 100 NW3       29.77R
OSCODA         MIX PCPN  37  37  97 E3        29.75S
PELLSTON       LGT RAIN  35  33  92 E5        29.77R WCI  31
ROGERS CITY    MIX PCPN  36  35  96 E3        29.78S
TRAVERSE CITY  DRIZZLE   38  37  97 CALM      29.75R FOG
$$
MIZ007>008-015-240300-
EASTERN UPPER MICHIGAN

CITY           SKY/WX    TMP DP  RH WIND       PRES   REMARKS
KINROSS        LGT RAIN  33  33 100 E7        29.79R WCI  27
MACKINAC ISLAN MIX PCPN  33  33 100 E7        29.77R WCI  27
NEWBERRY       CLOUDY    32  32  99 CALM      29.78R FOG
S. S. MARIE    LGT RAIN  35  34  96 E5        29.78S FOG     WCI  31
MUNISING         N/A     35  35 100 CALM      29.78S
$$
MIZ004>006-011>014-085-240300-
CENTRAL UPPER MICHIGAN

CITY           SKY/WX    TMP DP  RH WIND       PRES   REMARKS
MANISTIQUE     CLOUDY    33  33  98 N3        29.78S FOG
ESCANABA       FOG       35  34  96 CALM      29.79S VSB 1/2
SAWYER-GWINN   FOG       32  32 100 CALM      29.78S VSB 1/2
$$
MIZ001>003-009>011-084-240300-
WESTERN UPPER MICHIGAN

CITY           SKY/WX    TMP DP  RH WIND       PRES   REMARKS
IRON MOUNTAIN  CLOUDY    35  32  88 CALM      29.76R
HOUGHTON       CLOUDY    34  32  92 NW8       29.78R WCI  27
COPPER HARBOR    N/A     35  35 100 CALM      29.79S
IRONWOOD       CLOUDY    34  34 100 CALM      29.79S FOG
$$

ABBREVIATIONS USED IN REMARKS
   TC - TEMPERATURE IN CELSIUS
  WCI - WIND CHILL INDEX
   HX - HEAT INDEX
  VSB - VISIBILITY





USA.gov is the U.S. government's official web portal to all federal, state and local government web resources and services.